Location: Fort Wayne
(41.1310°N, 85.1290°W)
Time: 04:38:51
(UTC-04:00)

Vanguard 3 - Visible Passes

Search period start: 03 August 2015 00:00
Search period end: 13 August 2015 00:00
Orbit: 508 x 3270 km, 33.3° (Epoch: 31 July)

Date Brightness Start Highest point End Pass type
(mag) Time Alt. Az. Time Alt. Az. Time Alt. Az.
08 Aug 11.3 06:00:31 10° S 06:10:39 18° SE 06:22:37 10° E visible
10 Aug 11.2 05:43:49 10° S 05:55:07 22° SE 06:08:34 10° E visible
11 Aug 11.3 04:37:34 10° SE 04:40:36 11° SE 04:46:06 10° ESE visible
12 Aug 11.0 05:27:37 10° S 05:39:31 25° SE 05:54:04 10° E visible
